This demonstration page uses our WeatherBlox Daily Observations layout. Learn more.

Left ArrowRight Arrow

Hourly Observations for June 19, 2020

Temp ( °F °C ) Dew Point ( °F °C ) Humidity (%) Winds ( mph kmh ) Pressure ( in mb ) Visibility ( mi km ) Precip ( " mm )
12:56 am 00:56 Cloudy 64 17.9 62 16.7 93 93 N 6 9 29.98 1015 10 16 0.01 0.25
1:11 am 01:11 Cloudy 64 18 63 17 94 94 N 6 9 29.97 1015 10 16 0.00 0.00
1:12 am 01:12 Cloudy 64 18 63 17 94 94 N 5 7 29.97 1015 10 16 0.00 0.00
1:56 am 01:56 Cloudy with Drizzle 64 18 63 17 94 94 N 7 11 29.98 1015 10 16 0.04 1.02
2:56 am 02:56 Cloudy 65 18.1 63 17.1 94 94 NW 5 7 30.00 1016 10 16 0.00 0.00
3:41 am 03:41 Mostly Cloudy 64 18 63 17 94 94 Calm 29.97 1015 10 16 0.00 0.00
3:56 am 03:56 Mostly Cloudy 65 18.1 63 17.1 94 94 N 5 7 29.98 1015 10 16 0.00 0.00
4:56 am 04:56 Cloudy 65 18.4 64 17.6 95 95 Calm 29.97 1015 10 16 0.00 0.00
5:26 am 05:26 Cloudy with Drizzle 66 19 64 18 94 94 NNW 6 9 29.99 1016 10 16 0.00 0.00
5:56 am 05:56 Cloudy 65 18.6 64 17.8 95 95 WNW 7 11 30.01 1016 10 16 0.00 0.00
6:11 am 06:11 Cloudy 66 19 64 18 94 94 Calm 30.01 1016 10 16 0.00 0.00
6:56 am 06:56 Cloudy 65 18.5 64 17.5 94 94 NW 5 7 30.02 1017 10 16 0.00 0.00
7:11 am 07:11 Cloudy 66 19 63 17 88 88 NW 3 6 30.02 1017 10 16 0.00 0.00
7:57 am 07:57 Cloudy 66 18.7 63 17.2 91 91 NW 5 7 30.02 1017 10 16 0.00 0.00
8:42 am 08:42 Partly Cloudy 66 19 63 17 88 88 N 8 13 30.02 1017 9 14 0.00 0.00
8:56 am 08:56 Sunny 67 19.3 63 17.4 89 89 N 9 15 30.02 1017 10 16 0.00 0.00
9:56 am 09:56 Mostly Sunny 68 20.1 64 17.7 86 86 NNE 8 13 30.01 1016 10 16 0.00 0.00
10:26 am 10:26 Cloudy 68 20 64 18 88 88 N 6 9 30.03 1017 10 16 0.00 0.00
10:56 am 10:56 Cloudy 69 20.3 64 17.5 84 84 N 3 6 30.06 1018 10 16 0.00 0.00
11:56 am 11:56 Cloudy 69 20.6 64 17.6 83 83 Calm 30.06 1018 10 16 0.00 0.00
12:11 pm 12:11 Cloudy 70 21 64 18 83 83 NE 5 7 30.06 1018 10 16 0.00 0.00
12:56 pm 12:56 Cloudy 71 21.7 64 17.7 78 78 NNE 5 7 30.05 1018 10 16 0.00 0.00
1:56 pm 13:56 Mostly Cloudy 73 22.6 64 17.7 74 74 N 7 11 30.04 1017 10 16 0.00 0.00
2:11 pm 14:11 Mostly Cloudy 73 23 64 18 74 74 N 7 11 30.04 1017 10 16 0.00 0.00
2:56 pm 14:56 Cloudy 74 23.1 64 17.8 72 72 NNE 5 7 30.03 1017 10 16 0.00 0.00
3:56 pm 15:56 Cloudy 76 24.5 65 18.2 68 68 NNE 7 11 30.01 1016 10 16 0.00 0.00
4:56 pm 16:56 Mostly Cloudy 77 25 64 17.7 64 64 NNE 9 15 29.99 1016 10 16 0.00 0.00
5:56 pm 17:56 Cloudy 76 24.7 65 18.1 67 67 NE 6 9 29.98 1015 10 16 0.00 0.00
6:56 pm 18:56 Mostly Cloudy 75 23.7 61 16.2 63 63 NE 9 15 29.98 1015 10 16 0.00 0.00
7:56 pm 19:56 Sunny 73 22.6 62 16.8 70 70 NE 5 7 29.98 1015 10 16 0.00 0.00
8:56 pm 20:56 Mostly Sunny 70 20.9 63 17.3 80 80 ENE 5 7 29.98 1015 10 16 0.00 0.00
9:56 pm 21:56 Partly Cloudy 67 19.4 63 17.3 88 88 Calm 30.01 1016 10 16 0.00 0.00
10:56 pm 22:56 Cloudy 70 20.9 62 16.9 78 78 Calm 30.01 1016 10 16 0.00 0.00
11:56 pm 23:56 Cloudy 70 20.9 61 16.1 74 74 Calm 30.01 1016 10 16 0.00 0.00

Powered by AerisWeather